Location: Ehrke Reservoir
(40.0279°N, 99.6641°W)
Time: 15:58:26
(UTC+00:00)

Cosmos 2184 Rocket - Pass Details

Date: 20 January 2020
Orbit: 959 x 1002 km, 82.9° (Epoch: 18 February)

Event Time Altitude Azimuth Distance (km) Brightness Sun altitude
Exits shadow 11:27:41 48° 349° (NNW) 1,251 4.4 -28.2°
Maximum altitude 11:29:35 85° 266° (W) 981 3.8 -27.9°
Drops below altitude 10° 11:35:50 10° 177° (S) 2,723 6.4 -26.7°
Sets 11:38:20 0° 177° (S) 3,673 7.1 -26.2°
